C/2019 O3 ( Palomar )

Japanese version
Home page
Updated on April 4, 2021

---------------------------------------------------------------------

* Profile

Discovery Date July 26, 2019
Magnitude 19.3 mag
Discoverer Q.-Z. Ye (Oschin Schmidt telescope, Palomar)

* Pictures

* Orbital Elements

Epoch 2021 Mar. 7.0 TT = JDT 2459280.5
T 2021 Mar. 7.94714 TT                                  Rudenko
q   8.8194730            (2000.0)            P               Q
z  -0.0002565      Peri.   60.04812     +0.25491611     -0.43681138
 +/-0.0000008      Node   300.38086     -0.73852539     +0.48793685
e   1.0022626      Incl.   89.81517     +0.62417788     +0.75572048
From 507 observations 2019 May 14-2021 Feb. 25, mean residual 0".4.

* Finding Charts

* Magnitudes Graph

        m1 = -59 + 5 log d + 75 log r

---------------------------------------------------------------------

The orbital elements are published on M.P.E.C. 2021-F20.
The charts are made with StellaNavigator Ver.10 (AstroArts).
The magnitudes graphs are made with Comet for Windows.

---------------------------------------------------------------------

Copyright(C) Seiichi Yoshida (comet@aerith.net). All rights reserved.